STARLINK-31404, 59521

Orbit data source: Space-Track

STARLINK-31404, 59521 is a payload satellite owned by SpaceX/Seattle (US) in LEO that was launched on Wed, 17 Apr 2024 UTC via an FALCON 9 launch vehicle from the Air Force Eastern Test Range (AFETR). Payload-class satellites include a variety of spacecraft equipped with specific instruments for various scientific and technological missions. These include communications satellites like Starlink; space stations such as the ISS; scientific satellites like the Hubble; Earth observation satellites from companies like Planet Labs, Umbra, and HawkEye 360; GPS; miniature CubeSats for education and research; and military/defense satellites.

Loading next visibility...
Identifier
59521, 2024-073L
Orbit
LEO
Country
Flag of USUS
Related business
Manufacturer
SpaceX/Seattle
Mission
Operational Commercial Communications
Bus & Motor
STARLINK V2M, Unknown motor
Mass
730 kg wet, ~700 kg dry
Launch date (UTC)
2024-04-17 (2 years ago)
Launch vehicle
FALCON 9
Launch site
Air Force Eastern Test Range (AFETR)
Object type
Payload
Rocket body
Debris
Shape & HBR
Box + 2 Pan, 17.7 m
Radar Cross Section
33.884 m², Large (>1 m²)

Expand to show TLE details & history
Last TLE update: 2 days ago

TLE from 2 days ago
0 STARLINK-31404
1 59521U 24073L   26171.16260330 -.00001059  00000-0 -28925-4 0  9993
2 59521  43.0003  99.6361 0000964 259.2370 100.8373 15.27616190121841
Epoch: 2026-06-20T03:54Z
TLE epoch observation values (Epoch: 2026-06-20T03:54:08.925Z)
Latitude
-0.00001°
Longitude
132.71772°
Altitude
482.841 km
Speed
7.626 km/s
True Right ascension
06h 38m 32s
True Declination
0° 00' 00"
Sunlit
Object was in daylight at epoch
Visualization orbit readout
Latitude
Unknown
Longitude
Unknown
Altitude
Unknown
Speed
Unknown
Apparent Right ascension
Unknown
Apparent Declination
Unknown
Sunlit
N/A
Visualization observer readout
Local Sidereal Time
15:34:20
Azimuth
Unknown
Elevation
Unknown
Doppler factor
Unknown
Orbital elements
Apogee altitude
485.547 km
Perigee altitude
484.224 km
Semi-major axis
6,863.023 km
Eccentricity
0.0001
Inclination
43.0003°
RAAN
99.6361°
Arg. of periapsis
259.237°
True anomaly
100.84815°
Mean anomaly
100.8373°
Eccentric anomaly
100.84272°
Mean motion
3.81742 °/min
Orbital period
94.3 mins
BSTAR
-0.000028925
Loading maneuver chart data...
Computing Atmospheric mass density...
Loading historical data...
Loading historical data...
Loading historical data...
Loading historical data...
Loading historical data...
Loading historical data...
Loading historical data...

Documentation

Showing up to 5 results
|